This is the latest recevied weather packets stored in our database for station/object KN6WGU. If no packets are shown the sender has not sent any weather packets the latest 10 day(s).
| Time | Temp. | Humidity | Pressure | Rain* | Wind** | Luminosity | Snow |
|---|---|---|---|---|---|---|---|
| 1788558214 | 25° C | 85% | 1007.1 hPa | 0 mm | - | 93 W/m² | - |
| 1788557912 | 25° C | 85% | 1007.2 hPa | 0 mm | - | 86 W/m² | - |
| 1788557607 | 25° C | 85% | 1007.1 hPa | 0 mm | - | 101 W/m² | - |
| 1788557303 | 25° C | 85% | 1006.8 hPa | 0 mm | - | 97 W/m² | - |
| 1788556997 | 25° C | 85% | 1006.7 hPa | 0 mm | - | 93 W/m² | - |
| 1788556693 | 25° C | 85% | 1006.6 hPa | 0 mm | - | 89 W/m² | - |
| 1788556387 | 25.56° C | 85% | 1006.7 hPa | 0 mm | - | 93 W/m² | - |
| 1788556083 | 25.56° C | 85% | 1006.8 hPa | 0 mm | - | 101 W/m² | - |
| 1788555782 | 25.56° C | 84% | 1006.4 hPa | 0 mm | - | 103 W/m² | - |
| 1788555478 | 25.56° C | 83% | 1006.4 hPa | 0 mm | - | 97 W/m² | - |
| 1788555174 | 25.56° C | 83% | 1006.3 hPa | 0 mm | - | 97 W/m² | - |
| 1788554871 | 26.11° C | 84% | 1006.3 hPa | 0 mm | - | 98 W/m² | - |
| 1788554567 | 25.56° C | 82% | 1006.2 hPa | 0 mm | - | 121 W/m² | - |
| 1788554262 | 25.56° C | 83% | 1006.1 hPa | 0 mm | - | 138 W/m² | - |
| 1788553958 | 25.56° C | 84% | 1006.2 hPa | 0 mm | - | 153 W/m² | - |
| 1788553654 | 26.11° C | 83% | 1005.9 hPa | 0 mm | - | 151 W/m² | - |
| 1788553350 | 26.11° C | 84% | 1005.8 hPa | 0 mm | - | 170 W/m² | - |
| 1788553063 | 26.11° C | 85% | 1005.7 hPa | 0 mm | - | 204 W/m² | - |
| 1788552745 | 26.11° C | 85% | 1006 hPa | 0 mm | - | 176 W/m² | - |
| 1788552440 | 25.56° C | 84% | 1006.1 hPa | 0 mm | - | 198 W/m² | - |
| 1788552135 | 25.56° C | 83% | 1006.4 hPa | 0 mm | - | 197 W/m² | - |
| 1788551834 | 25.56° C | 86% | 1006.4 hPa | 0 mm | - | 210 W/m² | - |
| 1788551533 | 25.56° C | 86% | 1006.8 hPa | 0 mm | - | 189 W/m² | - |
| 1788551228 | 25.56° C | 86% | 1006.8 hPa | 0 mm | - | 186 W/m² | - |
| 1788550921 | 26.11° C | 84% | 1007.2 hPa | 0 mm | - | 180 W/m² | - |
* Rain latest hour (hover to see other rain measurements)
** Current wind speed in m/s (hover to see current wind gust speed)